KB3YPI Weather Reports


time (UTC)temp
C
wind
direction
speed
KPH
gust
KPH
rain 1hr
cm
rain 24hr
cm
rain mn
cm
humidity
%
barometer
mb
20260510105040 10 13 0.0 0.0 0.00 0.05 0.05 96 1011.1
20260510104539 10 13 0.0 0.0 0.00 0.05 0.05 96 1011.1
20260510104038 10 13 0.0 0.0 0.00 0.05 0.05 96 1011.1
20260510103537 10 13 0.0 0.0 0.00 0.05 0.05 96 1011.0
20260510103040 10 13 0.0 0.0 0.00 0.05 0.05 96 1011.0
20260510102532 10 13 0.0 0.0 0.00 0.05 0.05 96 1010.7
20260510102033 10 13 0.0 0.0 0.00 0.05 0.05 96 1010.6
20260510101531 10 13 0.0 0.0 0.00 0.05 0.05 96 1010.7
20260510101031 10 13 0.0 0.0 0.00 0.05 0.05 96 1010.6
20260510100530 10 13 0.0 0.0 0.00 0.05 0.05 96 1010.5
20260510100039 11 13 0.0 0.0 0.00 0.05 0.05 96 1010.5
20260510095530 11 13 0.0 0.0 0.03 0.05 0.05 96 1010.5
20260510095030 11 13 0.0 0.0 0.05 0.05 0.05 96 1010.5
20260510094538 11 13 0.0 0.0 0.05 0.05 0.05 96 1010.4
20260510094029 11 13 0.0 0.0 0.05 0.05 0.05 96 1010.3
20260510093529 11 13 0.0 0.0 0.05 0.05 0.05 96 1010.1
20260510093036 11 13 0.0 0.0 0.05 0.05 0.05 96 1009.9
20260510092525 11 303 0.0 0.0 0.05 0.05 0.05 97 1010.0
20260510092025 11 304 0.0 0.0 0.05 0.05 0.05 97 1010.3
20260510091526 11 279 0.0 0.0 0.05 0.05 0.05 96 1010.4
20260510091023 11 279 0.0 0.0 0.05 0.05 0.05 97 1010.7
20260510090523 11 280 0.0 0.0 0.05 0.05 0.05 97 1010.9
20260510090022 11 280 0.0 0.0 0.05 0.05 0.05 97 1011.2
20260510085521 11 280 0.0 0.0 0.03 0.03 0.03 97 1011.3
20260510085021 11 346 0.0 0.0 0.00 0.00 0.00 97 1011.5
20260510084518 10 279 0.0 0.0 0.00 0.00 0.00 96 1011.6
20260510084018 10 287 0.0 0.0 0.00 0.00 0.00 96 1011.2
20260510083615 10 287 0.0 0.0 0.00 0.00 0.00 96 1011.1
20260510083016 10 53 0.0 0.0 0.00 0.00 0.00 96 1011.0
20260510082514 10 53 0.0 0.0 0.00 0.00 0.00 96 1010.5
20260510082045 10 53 0.0 0.0 0.00 0.00 0.00 96 1010.2
20260510081545 10 53 0.0 0.0 0.00 0.00 0.00 96 1010.1
20260510081044 10 53 0.0 0.0 0.00 0.00 0.00 96 1010.0
20260510080543 10 53 0.0 0.0 0.00 0.00 0.00 96 1010.1
20260510080058 10 53 0.0 0.0 0.00 0.00 0.00 96 1010.1
20260510075543 10 53 0.0 0.0 0.00 0.00 0.00 96 1010.0
20260510075013 10 53 0.0 0.0 0.00 0.00 0.00 96 1009.8
20260510074514 10 53 0.0 0.0 0.00 0.00 0.00 96 1009.8
20260510074014 10 53 0.0 0.0 0.00 0.00 0.00 96 1009.7
20260510073513 10 53 0.0 0.0 0.00 0.00 0.00 96 1009.7
20260510073015 10 53 0.0 0.0 0.00 0.00 0.00 96 1009.7
20260510072514 10 53 0.0 0.0 0.00 0.00 0.00 96 1009.7
20260510072011 10 53 0.0 0.0 0.00 0.00 0.00 96 1009.7
20260510071510 10 53 0.0 0.0 0.00 0.00 0.00 96 1009.7
20260510071010 10 53 0.0 0.0 0.00 0.00 0.00 96 1009.7
20260510070510 10 53 0.0 0.0 0.00 0.00 0.00 96 1009.8
20260510070009 10 53 0.0 0.0 0.00 0.00 0.00 96 1010.0
20260510065510 10 53 0.0 0.0 0.00 0.00 0.00 96 1010.0
20260510065009 10 53 0.0 0.0 0.00 0.00 0.00 96 1010.0
20260510064511 10 53 0.0 0.0 0.00 0.00 0.00 96 1010.0
20260510064008 10 53 0.0 0.0 0.00 0.00 0.00 96 1010.1
20260510063508 10 53 0.0 0.0 0.00 0.00 0.00 96 1010.0
20260510063008 10 53 0.0 0.0 0.00 0.00 0.00 96 1010.1
20260510062507 10 53 0.0 0.0 0.00 0.00 0.00 97 1010.0
20260510062005 10 53 0.0 0.0 0.00 0.00 0.00 97 1010.2
20260510061505 10 53 0.0 0.0 0.00 0.00 0.00 97 1010.4
20260510061003 10 45 0.0 0.0 0.00 0.00 0.00 97 1010.7
20260510060502 10 44 0.0 0.0 0.00 0.00 0.00 97 1010.5
20260510060101 9 279 0.0 0.0 0.00 0.00 0.00 96 1010.9
20260510055559 8 360 0.0 0.0 0.00 0.00 0.00 96 1010.8
20260510055101 8 117 0.0 0.0 0.00 0.00 0.00 95 1010.0
20260510054601 8 117 0.0 0.0 0.00 0.00 0.00 95 1010.0
20260510054058 8 117 0.0 0.0 0.00 0.00 0.00 95 1010.1
20260510053557 8 117 0.0 0.0 0.00 0.00 0.00 95 1010.1
20260510053100 8 117 0.0 0.0 0.00 0.00 0.00 95 1010.1
20260510052557 8 117 0.0 0.0 0.00 0.00 0.00 95 1010.3
20260510052054 8 117 0.0 0.0 0.00 0.00 0.00 95 1010.4
20260510051605 8 117 0.0 0.0 0.00 0.00 0.00 95 1010.4
20260510051055 8 117 0.0 0.0 0.00 0.00 0.00 95 1010.3
20260510050556 8 117 0.0 0.0 0.00 0.00 0.00 95 1010.4
20260510050059 8 117 0.0 0.0 0.00 0.00 0.00 95 1010.3
20260510045550 8 117 0.0 0.0 0.00 0.00 0.00 95 1010.2
20260510045049 8 117 0.0 0.0 0.00 0.00 0.00 95 1010.1
20260510044548 8 117 0.0 0.0 0.00 0.00 0.00 95 1009.9
20260510044046 9 117 0.0 0.0 0.00 0.00 0.00 95 1009.8
20260510043546 9 117 0.0 0.0 0.00 0.00 0.00 95 1009.8
20260510043047 9 117 0.0 0.0 0.00 0.00 0.00 94 1009.7
20260510042545 9 117 0.0 0.0 0.00 0.00 0.00 94 1009.7
20260510042044 9 117 0.0 0.0 0.00 0.00 0.00 94 1009.7
20260510041542 9 117 0.0 0.0 0.00 0.00 0.00 95 1009.6
20260510041041 9 117 0.0 0.0 0.00 0.00 0.00 95 1009.6
20260510040541 9 117 0.0 0.0 0.00 0.00 0.00 94 1009.6
20260510040040 9 117 0.0 0.0 0.00 0.00 0.00 94 1009.7
20260510035540 9 117 0.0 0.0 0.00 0.00 0.00 94 1009.7
20260510035040 9 117 0.0 0.0 0.00 0.00 0.00 94 1009.7
20260510034539 9 117 0.0 0.0 0.00 0.00 0.00 94 1009.7
20260510034039 9 117 0.0 0.0 0.00 0.00 0.00 94 1009.7
20260510033542 9 117 0.0 0.0 0.00 0.00 0.00 94 1009.7
20260510033051 9 117 0.0 0.0 0.00 0.00 0.00 94 1009.8
20260510032538 9 117 0.0 0.0 0.00 0.00 0.00 94 1009.8
20260510032039 9 117 0.0 0.0 0.00 0.00 0.00 93 1009.8
20260510031539 9 117 0.0 0.0 0.00 0.00 0.00 93 1009.7
20260510031035 10 117 0.0 0.0 0.00 0.00 0.00 93 1009.6
20260510030535 10 117 0.0 0.0 0.00 0.00 0.00 93 1009.7
20260510030035 10 117 0.0 0.0 0.00 0.00 0.00 92 1009.7
20260510025535 10 117 0.0 0.0 0.00 0.00 0.00 92 1009.7
20260510025035 10 117 0.0 0.0 0.00 0.00 0.00 93 1009.6
20260510024534 10 117 0.0 0.0 0.00 0.00 0.00 93 1009.6
20260510024034 10 117 0.0 0.0 0.00 0.00 0.00 92 1009.6
20260510023533 10 117 0.0 0.0 0.00 0.00 0.00 92 1009.5
20260510023033 10 117 0.0 0.0 0.00 0.00 0.00 92 1009.5
20260510022533 10 117 0.0 0.0 0.00 0.00 0.00 92 1009.5
20260510022033 10 117 0.0 0.0 0.00 0.00 0.00 92 1009.6
20260510021507 10 117 0.0 0.0 0.00 0.00 0.00 92 1009.6
20260510021002 10 117 0.0 0.0 0.00 0.00 0.00 91 1009.5
20260510020502 10 117 0.0 0.0 0.00 0.00 0.00 91 1009.4
20260510020002 11 117 0.0 0.0 0.00 0.00 0.00 90 1009.3
20260510015502 11 117 0.0 0.0 0.00 0.00 0.00 90 1009.3
20260510015101 11 117 0.0 0.0 0.00 0.00 0.00 90 1009.2
20260510014600 11 117 0.0 0.0 0.00 0.00 0.00 90 1009.1
20260510014057 11 117 0.0 0.0 0.00 0.00 0.00 90 1009.0
20260510013556 11 117 0.0 0.0 0.00 0.00 0.00 90 1008.9
20260510013109 11 202 0.0 0.0 0.00 0.00 0.00 89 1008.9
20260510012556 11 202 0.0 0.0 0.00 0.00 0.00 89 1008.9
20260510012056 12 202 0.0 0.0 0.00 0.00 0.00 89 1008.9
20260510011556 12 202 0.0 0.0 0.00 0.00 0.00 88 1008.9
20260510011055 12 202 0.0 0.0 0.00 0.00 0.00 88 1008.9
20260510010557 12 202 0.0 0.0 0.00 0.00 0.00 88 1008.7
20260510010100 12 202 0.0 0.0 0.00 0.00 0.00 87 1008.7
20260510005555 12 202 0.0 0.0 0.00 0.00 0.00 85 1008.5
20260510005054 13 202 0.0 0.0 0.00 0.00 0.00 84 1008.5
20260510004554 13 202 0.0 0.0 0.00 0.00 0.00 85 1008.4
20260510004052 13 202 0.0 0.0 0.00 0.00 0.00 84 1008.5
20260510003553 13 202 0.0 0.0 0.00 0.00 0.00 83 1008.5
20260510003052 13 202 0.0 0.0 0.00 0.00 0.00 83 1008.6
20260510002555 14 202 0.0 0.0 0.00 0.00 0.00 82 1008.6
20260510002052 14 202 0.0 0.0 0.00 0.00 0.00 80 1008.4
20260510001552 15 202 0.0 0.0 0.00 0.00 0.00 80 1008.3
20260510001052 15 202 0.0 0.0 0.00 0.00 0.00 79 1008.2
20260510000553 15 202 0.0 0.0 0.00 0.00 0.00 79 1008.0
20260510000052 15 202 0.0 0.0 0.00 0.00 0.00 78 1008.0
20260509235551 15 202 0.0 0.0 0.00 0.00 0.00 77 1008.0
20260509235052 15 202 0.0 0.0 0.00 0.00 0.00 76 1008.0
20260509234551 15 202 0.0 0.0 0.00 0.00 0.00 76 1008.0
20260509234049 16 202 0.0 0.0 0.00 0.00 0.00 76 1008.0
20260509233547 16 202 0.0 0.0 0.00 0.00 0.00 75 1008.0
20260509233149 16 202 0.0 0.0 0.00 0.00 0.00 75 1008.0
20260509232548 16 202 0.0 0.0 0.00 0.00 0.00 74 1007.9
20260509232048 16 202 0.0 0.0 0.00 0.00 0.00 74 1007.9
20260509231549 16 205 0.0 0.0 0.00 0.00 0.00 74 1007.9
20260509231046 16 205 0.0 0.0 0.00 0.00 0.00 74 1007.9
20260509230545 16 205 0.0 0.0 0.00 0.00 0.00 73 1007.9
20260509230049 16 198 0.0 0.0 0.00 0.00 0.00 72 1008.0
20260509225545 16 198 0.0 0.0 0.00 0.00 0.00 73 1008.0
20260509225045 16 198 0.0 0.0 0.00 0.00 0.00 72 1007.9
20260509224545 17 179 0.0 0.0 0.00 0.00 0.00 72 1007.9
20260509224042 17 198 0.0 0.0 0.00 0.00 0.00 71 1007.9
20260509223543 17 194 0.0 0.0 0.00 0.00 0.00 71 1007.9
20260509223041 17 150 0.0 0.0 0.00 0.00 0.00 69 1007.9
20260509222542 17 122 0.0 0.0 0.00 0.00 0.00 71 1007.9
20260509222041 17 132 0.0 0.0 0.00 0.00 0.00 70 1008.0
20260509221541 17 116 0.0 0.0 0.00 0.00 0.00 70 1008.0
20260509221040 17 167 0.0 0.0 0.00 0.00 0.00 69 1008.0
20260509220538 17 96 0.0 0.0 0.00 0.00 0.00 70 1007.9
20260509220038 17 150 0.0 0.0 0.00 0.00 0.00 71 1008.0
20260509215537 17 166 0.0 0.0 0.00 0.00 0.00 73 1008.0
20260509215037 17 61 0.0 0.0 0.00 0.00 0.00 73 1008.1
20260509214538 17 42 0.0 0.0 0.00 0.00 0.00 73 1008.1
20260509214032 17 185 0.0 0.0 0.00 0.00 0.00 75 1008.2
20260509213530 16 90 0.0 0.0 0.00 0.00 0.00 77 1008.2
20260509213031 16 61 0.0 0.0 0.00 0.00 0.00 77 1008.3
20260509212526 16 165 0.0 0.0 0.00 0.00 0.00 78 1008.4
20260509212029 16 193 0.0 0.0 0.00 0.00 0.00 80 1008.4
20260509211524 15 121 0.0 0.0 0.00 0.00 0.00 81 1008.4
20260509211023 15 65 0.0 0.0 0.00 0.00 0.00 82 1008.5
20260509210522 15 73 0.0 0.0 0.00 0.00 0.00 83 1008.5
20260509210021 15 130 0.0 0.0 0.00 0.00 0.00 84 1008.5
20260509205519 15 82 0.0 0.0 0.00 0.00 0.00 87 1008.5
20260509205018 15 60 0.0 0.0 0.00 0.00 0.00 87 1008.7
20260509204517 14 59 0.0 0.0 0.00 0.00 0.00 88 1008.9
20260509204047 14 59 0.0 0.0 0.00 0.00 0.00 89 1008.9
20260509203546 14 59 0.0 0.0 0.00 0.00 0.00 89 1009.0
20260509203046 14 60 0.0 0.0 0.00 0.00 0.00 88 1009.1
20260509202546 13 60 0.0 0.0 0.00 0.00 0.00 88 1009.1
20260509202046 14 61 0.0 0.0 0.00 0.00 0.00 89 1009.0
20260509201545 14 360 0.0 0.0 0.00 0.00 0.00 89 1008.9
20260509201043 14 355 0.0 0.0 0.00 0.00 0.00 88 1008.8
20260509200543 14 355 0.0 0.0 0.00 0.00 0.00 87 1008.7
20260509200050 14 355 0.0 0.0 0.00 0.00 0.00 88 1008.7
20260509195541 14 355 0.0 0.0 0.00 0.00 0.00 88 1008.7
20260509195040 14 355 0.0 0.0 0.00 0.00 0.00 87 1009.0
20260509194553 14 355 0.0 0.0 0.00 0.00 0.00 85 1009.1
20260509194040 14 355 0.0 0.0 0.00 0.00 0.00 87 1009.1
20260509193539 14 355 0.0 0.0 0.00 0.00 0.00 86 1009.0
20260509193037 14 355 0.0 0.0 0.00 0.00 0.00 85 1009.1
20260509192538 15 355 0.0 0.0 0.00 0.00 0.00 85 1009.3
20260509192037 15 355 0.0 0.0 0.00 0.00 0.00 86 1009.3
20260509191536 14 355 0.0 0.0 0.00 0.00 0.00 85 1009.4
20260509191038 15 53 0.0 0.0 0.00 0.00 0.00 88 1009.5
20260509190504 14 211 0.0 0.0 0.00 0.00 0.00 87 1009.5
20260509190004 14 204 0.0 0.0 0.00 0.00 0.00 88 1009.7
20260509185503 14 205 0.0 0.0 0.00 0.00 0.00 89 1009.9
20260509185002 14 205 0.0 0.0 0.00 0.00 0.00 90 1009.9
20260509184611 13 205 0.0 0.0 0.00 0.00 0.00 90 1010.1
20260509184059 13 205 0.0 0.0 0.00 0.00 0.00 87 1010.0
20260509183531 -17 0.0 0.0 0.00 0.00 0.00 1009.9
20260509183032 -17 0.0 0.0 0.00 0.00 0.00 1009.9
20260509182525 -17 0.0 0.0 0.00 0.00 0.00 1009.8
20260509182024 -17 0.0 0.0 0.00 0.00 0.00 1009.8
20260509181522 -17 0.0 0.0 0.00 0.00 0.00 1009.7
20260509181021 -17 0.0 0.0 0.00 0.00 0.00 1009.7
20260509180518 -17 0.0 0.0 0.00 0.00 0.00 1009.7
20260509180015 -17 0.0 0.0 0.00 0.00 0.00 1009.8
20260509175514 -17 0.0 0.0 0.00 0.00 0.00 1009.9
20260509175013 -17 0.0 0.0 0.00 0.00 0.00 1010.0
20260509174512 -17 0.0 0.0 0.00 0.00 0.00 1010.1
20260509174010 -17 0.0 0.0 0.00 0.00 0.00 1010.2
20260509173507 -17 0.0 0.0 0.00 0.00 0.00 1010.3
20260509173007 -17 0.0 0.0 0.00 0.00 0.00 1010.4
20260509172509 -17 0.0 0.0 0.00 0.00 0.00 1010.5
20260509172002 -17 0.0 0.0 0.00 0.00 0.00 1010.5
20260509171501 -17 0.0 0.0 0.00 0.00 0.00 1010.6
20260509171100 -17 0.0 0.0 0.00 0.00 0.00 1010.6
20260509170528 -17 0.0 0.0 0.00 0.00 0.00 1010.7
20260509170027 -17 0.0 0.0 0.00 0.00 0.00 1010.6
20260509165525 -17 0.0 0.0 0.00 0.00 0.00 1010.6
20260509165023 -17 0.0 0.0 0.00 0.00 0.00 1010.6
20260509164522 -17 0.0 0.0 0.00 0.00 0.00 1010.4
20260509164021 -17 0.0 0.0 0.00 0.00 0.00 1010.4
20260509163521 -17 0.0 0.0 0.00 0.00 0.00 1010.2
20260509163016 -17 0.0 0.0 0.00 0.00 0.00 1010.1
20260509162514 -17 0.0 0.0 0.00 0.00 0.00 1010.0
20260509162013 -17 0.0 0.0 0.00 0.00 0.00 1009.8
20260509161512 -17 0.0 0.0 0.00 0.00 0.00 1009.8
20260509161009 -17 0.0 0.0 0.00 0.00 0.00 1009.9
20260509160508 -17 0.0 0.0 0.00 0.00 0.00 1010.1
20260509160006 -17 0.0 0.0 0.00 0.00 0.00 1010.2
20260509155506 -17 0.0 0.0 0.00 0.00 0.00 1010.3
20260509155004 -17 0.0 0.0 0.00 0.00 0.00 1010.5
20260509154503 -17 0.0 0.0 0.00 0.00 0.00 1010.9
20260509154003 -17 0.0 0.0 0.00 0.00 0.00 1011.1
20260509153559 -17 0.0 0.0 0.00 0.00 0.00 1011.1
20260509153103 -17 0.0 0.0 0.00 0.00 0.00 1011.3
20260509152555 -17 0.0 0.0 0.00 0.00 0.00 1011.4
20260509152053 -17 0.0 0.0 0.00 0.00 0.00 1011.5
20260509151552 -17 0.0 0.0 0.00 0.00 0.00 1011.4
20260509151049 -17 0.0 0.0 0.00 0.00 0.00 1011.3
20260509150548 -17 0.0 0.0 0.00 0.00 0.00 1011.2
20260509150047 -17 0.0 0.0 0.00 0.00 0.00 1011.1
20260509145547 -17 0.0 0.0 0.00 0.00 0.00 1011.1
20260509145045 -17 0.0 0.0 0.00 0.00 0.00 1011.1
20260509144546 -17 0.0 0.0 0.00 0.00 0.00 1010.9
20260509144041 -17 0.0 0.0 0.00 0.00 0.00 1010.8
20260509143540 -17 0.0 0.0 0.00 0.00 0.00 1010.9
20260509143036 -17 0.0 0.0 0.00 0.00 0.00 1010.9
20260509142535 -17 0.0 0.0 0.00 0.00 0.00 1010.8
20260509142033 -17 0.0 0.0 0.00 0.00 0.00 1010.8
20260509141538 -17 0.0 0.0 0.00 0.00 0.00 1010.8
20260509141030 -17 0.0 0.0 0.00 0.00 0.00 1010.6
20260509140528 -17 0.0 0.0 0.00 0.00 0.00 1010.6
20260509140029 -17 0.0 0.0 0.00 0.00 0.00 1010.6
20260509135525 -17 0.0 0.0 0.00 0.00 0.00 1010.7
20260509135024 -17 0.0 0.0 0.00 0.00 0.00 1010.6
20260509134523 -17 0.0 0.0 0.00 0.00 0.00 1010.6
20260509134023 -17 0.0 0.0 0.00 0.00 0.00 1010.5
20260509133520 -17 0.0 0.0 0.00 0.00 0.00 1010.6
20260509133015 -17 0.0 0.0 0.00 0.00 0.00 1010.5
20260509132521 -17 0.0 0.0 0.00 0.00 0.00 1010.5
20260509132012 -17 0.0 0.0 0.00 0.00 0.00 1010.6
20260509131511 -17 0.0 0.0 0.00 0.00 0.00 1010.4
20260509131009 -17 0.0 0.0 0.00 0.00 0.00 1010.3
20260509130508 -17 0.0 0.0 0.00 0.00 0.00 1010.0
20260509130007 -17 0.0 0.0 0.00 0.00 0.00 1009.8
20260509125505 -17 0.0 0.0 0.00 0.00 0.00 1009.8
20260509125003 -17 0.0 0.0 0.00 0.00 0.00 1009.8
20260509124503 -17 0.0 0.0 0.00 0.00 0.00 1009.9
20260509124002 -17 0.0 0.0 0.00 0.00 0.00 1010.2
20260509123600 -17 0.0 0.0 0.00 0.00 0.00 1010.2
20260509123029 -17 0.0 0.0 0.00 0.00 0.00 1010.5
20260509122526 -17 0.0 0.0 0.00 0.00 0.00 1010.6
20260509122025 -17 0.0 0.0 0.00 0.00 0.00 1010.6
20260509121524 -17 0.0 0.0 0.00 0.00 0.00 1010.6
20260509121024 -17 0.0 0.0 0.00 0.00 0.00 1010.5
20260509120521 -17 0.0 0.0 0.00 0.00 0.00 1010.5
20260509120018 -17 0.0 0.0 0.00 0.00 0.00 1010.4
20260509115515 -17 0.0 0.0 0.00 0.00 0.00 1010.2
20260509115014 -17 0.0 0.0 0.00 0.00 0.00 1010.1
20260509114513 -17 0.0 0.0 0.00 0.00 0.00 1010.2
20260509114011 -17 0.0 0.0 0.00 0.00 0.00 1010.2
20260509113510 -17 0.0 0.0 0.00 0.00 0.00 1010.2
20260509113008 -17 0.0 0.0 0.00 0.00 0.00 1010.0
20260509112506 -17 0.0 0.0 0.00 0.00 0.00 1009.9
20260509112006 -17 0.0 0.0 0.00 0.00 0.00 1010.1
20260509111505 -17 0.0 0.0 0.00 0.00 0.00 1010.1
20260509111006 -17 0.0 0.0 0.00 0.00 0.00 1010.0
20260509110506 -17 0.0 0.0 0.00 0.00 0.00 1010.0
20260509110002 -17 0.0 0.0 0.00 0.00 0.00 1009.9
20260509105558 -17 0.0 0.0 0.00 0.00 0.00 1009.7